Regional Weather Roundup
Issued by NWS Albany, NY

Home | Current Version | Previous Version | Graphics & Text | Print | Product List | Glossary Off
Versions: 1 2 3 4 5 6 7 8 9 10 11 12 13 14 15 16 17 18 19 20 21 22 23 24 25 26 27 28 29 30 31 32 33 34 35 36 37 38 39 40 41 42 43 44 45 46 47 48 49 50

000
ASUS41 KALY 050710
RWRALY

NEW YORK STATE HOURLY WEATHER ROUNDUP
NATIONAL WEATHER SERVICE ALBANY NY
300 AM EDT SAT SEP 05 2015

NOTE: "FAIR" INDICATES FEW OR NO CLOUDS BELOW 12,000 FEET WITH NO
SIGNIFICANT WEATHER AND/OR NO OBSTRUCTIONS TO VISIBILITY.

NYZ032-033-038>043-046>054-057>066-NYZ062>081-050800-
EAST


CITY           SKY/WX    TMP DP  RH WIND       PRES   REMARKS
ALBANY         PTCLDY    66  57  72 S6        30.22F
GLENS FALLS    CLEAR     58  56  93 CALM      30.22R
POUGHKEEPSIE   PTCLDY    68  57  68 E5        30.23S
NEWBURGH       PTCLDY    68  64  88 VRB6      30.25
MONTGOMERY     CLOUDY    69  63  81 E6        30.24S
WHITE PLAINS   PTCLDY    65  59  81 E5        30.23F
ISLIP          MOCLDY    65  59  81 NE6       30.21F
NEW YORK CITY  PTCLDY    69  61  75 E10       30.22S
CENTRAL PARK   MOCLDY    71  60  68 E10       30.25S
$$

NYZ005>009-017-018-044>046-055-056-050800-
CENTRAL


CITY           SKY/WX    TMP DP  RH WIND       PRES   REMARKS
FULTON         PTCLDY    70  66  87 VRB3      30.16S
SYRACUSE       MOCLDY    68  66  93 E6        30.16S
ROME           CLEAR     66  63  90 SE6       30.21S
ELMIRA         CLOUDY    73  68  84 CALM      30.18S
BINGHAMTON     CLEAR     66  64  93 SE3       30.23S FOG
MONTICELLO     CLOUDY    64  63  94 E7        30.27S
$$

NYZ026>034-041>043-050800-
NORTH


CITY           SKY/WX    TMP DP  RH WIND       PRES   REMARKS
WATERTOWN      CLEAR     58  56  93 E6        30.16S
FORT DRUM      NOT AVBL
MASSENA        CLEAR     54  50  86 CALM      30.21S
SARANAC LAKE   CLEAR     46  44  93 CALM      30.24S
PLATTSBURGH    CLEAR     54  52  93 CALM      30.21S
$$

NYZ001>004-010>016-019>021-050800-
WEST


CITY           SKY/WX    TMP DP  RH WIND       PRES   REMARKS
NIAGARA FALLS  CLEAR     66  60  81 E3        30.11S
BUFFALO        PTCLDY    69  63  81 E3        30.12S
DUNKIRK        CLEAR     65  64  97 SW5       30.11F
JAMESTOWN      MOCLDY    64  61  88 CALM      30.17S
WELLSVILLE     CLEAR     68  65  90 S6        30.23S FOG
ROCHESTER      CLEAR     65  61  87 SW5       30.14S
PENN YAN       PTCLDY    67  65  93 SW3       30.17F
$$

             KEY
       WCI = WIND CHILL INDEX
       VSB = VISIBILITY
       HX  = HEAT INDEX
$$


USA.gov is the U.S. government's official web portal to all federal, state and local government web resources and services.